Regional Weather Roundup
Issued by NWS Kansas City/Pleasant Hill, MO

Home | Current Version | Previous Version | Text Only | Print | Product List | Glossary On
Versions: 1 2 3 4 5 6 7 8 9 10 11 12 13 14 15 16 17 18 19 20 21 22 23 24 25 26 27 28 29 30 31 32 33 34 35 36 37 38 39 40 41 42 43 44 45 46 47 48 49 50
000
ASUS43 KEAX 300510
RWREAX

WEATHER ROUNDUP FOR EASTERN KANSAS AND NORTHWEST MISSOURI
NATIONAL WEATHER SERVICE KANSAS CITY/PLEASANT HILL MO
1200 AM CDT MON MAR 30 2015

KSZ040-057-103>105-MOZ028-029-037-043-300600-
...KANSAS CITY METROPOLITAN AREA...

CITY           SKY/WX    TMP DP  RH WIND       PRES   REMARKS
K.C. INTL      CLEAR     51  34  52 W6        30.16R
K.C. DOWNTOWN  CLEAR     46  37  71 CALM      30.16R
LEES SUMMIT    CLEAR     49  36  61 SW5       30.17R
OLATHE - IXD   CLEAR     41  34  76 CALM      30.17S
OLATHE - OJC   CLEAR     47  34  60 CALM      30.16R
LAWRENCE       CLEAR     34  30  85 N3        30.17S

$$

MOZ001>008-011>017-020>025-030>033-038>040-044>046-053-054-300600-
...NORTHERN AND CENTRAL MISSOURI...

CITY           SKY/WX    TMP DP  RH WIND       PRES   REMARKS
ST. JOSEPH     NOT AVBL
MOSBY          CLEAR     37  34  87 CALM      30.15S
WARRENSBURG    CLEAR     45  36  70 W3        30.17R
WHITEMAN AFB   CLEAR     42  36  77 W5        30.15R
CLINTON        CLEAR     45  37  76 MISG      30.17S
SEDALIA        CLEAR     47  37  68 W7        30.15F
WARSAW         NOT AVBL
MARSHALL       CLEAR     48  39  71 W3        30.15S
CHILLICOTHE      N/A     44  34  67 W3        30.14R
MOBERLY        CLEAR     45  34  65 W7        30.12S
KIRKSVILLE     CLEAR     42  34  73 W7        30.11R

$$

MOZ041-047>049-056>058-063>065-088>090-097-300600-
...EASTERN AND SOUTHERN MISSOURI...

CITY           SKY/WX    TMP DP  RH WIND       PRES   REMARKS
ST. LOUIS INTL PTCLDY    48  38  68 W5        30.09R
SPIRIT OF STL  CLEAR     46  38  73 W7        30.09R
COLUMBIA       CLEAR     48  38  68 W7        30.13R
JEFFERSON CITY CLEAR     44  39  82 CALM      30.14R
MEXICO         CLEAR     48  41  76 W9        30.11R
HANNIBAL       CLEAR     46  34  61 W8        30.10R
ROLLA          CLEAR     47  38  71 NW6       30.12R
LEBANON        CLEAR     46  41  81 NW5       30.16S
OSAGE BEACH    CLEAR     50  37  62 NW3       30.15S
SPRINGFIELD    CLEAR     48  41  76 W6        30.16R
BRANSON        CLEAR     50  43  76 CALM      30.15S
NEVADA         CLEAR     48  37  66 N5        30.18S
JOPLIN         CLEAR     45  40  82 CALM      30.18R
WEST PLAINS    CLEAR     51  39  63 NW6       30.14R

$$

IAZ060-094-KSZ022-034>040-054-083-096-NEZ052-066-093-300600-
...KANSAS...SOUTHEAST NEBRASKA AND IOWA...

CITY           SKY/WX    TMP DP  RH WIND       PRES   REMARKS
TOPEKA         CLEAR     39  34  82 CALM      30.18R
MANHATTAN      CLEAR     35  30  82 CALM      30.18R
EMPORIA        CLEAR     45  33  63 CALM      30.19R
CHANUTE        CLEAR     51  38  60 N3        30.19R
WICHITA        CLEAR     53  33  46 NE8       30.19R
OMAHA          CLEAR     38  28  67 SE3       30.12F
LINCOLN        CLEAR     37  24  59 CALM      30.15F
FALLS CITY     CLEAR     43  27  53 W6        30.15S
LAMONI         CLEAR     41  28  60 W9        30.12R
DES MOINES     CLEAR     45  23  42 W6        30.11R

$$



USA.gov is the U.S. government's official web portal to all federal, state and local government web resources and services.